Погода Аксаково

Поиск расширенной информации на нашем сайте:

Полезная информация:

Новости сайта



02.01.2020
Опубликован Долгосрочный прогноз погоды по городам России и ближнего зарубежья на январь 2020 года.
Карты: Прогноз на январь и февраль 2020 года, Сравнение прогнозируемой аномалии приземной температуры воздуха на январь 2020 года по разным моделям.




Погода Аксаково - сегодня

Время (UTC), дата Ветер
(°,м/с) 
Видим.   Явления Облачность Т
(°С)
Тd
(°С)
f(%) Тe
(°С)
Pmin
(гПа)
dP
(гПа)
Po
(мм)
O2
(г/м3)
Тmin Tmax R s Состояние
почвы
03 05.03.21 230 (ЮЗ) 4000 м  слаб. снег  10/10 300 м 
[Ns]
-2.6 -3.5 94 -6  999.9  0.5  718  292  -4.9    69  неравномерный
сухой снег
100% 
06 05.03.21 220 (ЮЗ) 1000 м  ливневой снег  10/10 300 м кучево-дожд. 
[Cb cap]
-2.5 -3.6 92 -5  999.4  -0.4  718  292           
09 05.03.21 240 (ЮЗ) 2000 м  слаб. ливневой снег  10/10 300 м кучево-дожд. 
[Cb cap]
-1.9 -3.1 91 -5  998.1  -1.2  717  291           
12 05.03.21 360 (С) 8-11{11}  4000 м  слаб. снег{ливн. осадки}  10/10 300 м 
[Ns]
-5.7 -7.3 88 -11  1001.4  2.6  719  296           
15 05.03.21 280 (З) 3{11}  10 км  {снег}  9/8 600 м кучево-дожд., средняя 
[Cb cap|Ac trans]
-7.9 -9.6 88 -11  1006.4  4.4  722  300    -1.6     
18 05.03.21 260 (З) 10 км  {снег}  4/0 средняя 
[Ac trans]
-11.9 -13.7 86 -15  1010.2  2.9  724  306           
21 05.03.21 260 (З) 10 км    ясно 
-14.1 -16.6 81 -18  1012.3  1.7  725  310           
00 06.03.21 230 (ЮЗ) 10 км    6/0 средняя 
[Ac As]
-13.3 -15.2 86 -17  1012.9  0.7  726  309           
03 06.03.21 220 (ЮЗ) 20000 м    8/4 600 м средняя 
[Sc|Ac trans]
-14.1 -15.9 86 -18  1013.6  0.6  726  310  -14.4      79  неравномерный
сухой снег
100% 
06 06.03.21 240 (ЮЗ) 20000 м    3/3 600 м 
[Sc]
-10.5 -12.4 86 -14  1013.7  0.7  727  306  -14.5         
09 06.03.21 240 (ЮЗ) 20000 м    9/9 600 м 
[Sc]
-7.8 -10.6 80 -11  1013.6  0.3  727  303           
12 06.03.21 270 (З) 20000 м    9/9 600 м верхняя 
[Sc|Ci fib]
-7.9 -10.8 80 -11  1013.5  0.1  727  303           
15 06.03.21 240 (ЮЗ) 10 км    9/3 600 м средняя 
[Sc|Ac und]
-12.1 -13.5 89 -14  1014.3  727  308    -7.3       
18 06.03.21 260 (З) 10 км  {снег}  9/0 средняя 
[Ac und]
-12.8 -14.4 88 -15  1014  -0.4  727  308           
21 06.03.21 300 (СЗ) 10 км    9/0 верхняя 
[Ci fib]
-13.7 -15.4 87 -17  1013.1  -1  726  309           
00 07.03.21 тихо ()   10 км    9/0 верхняя 
[Ci fib]
-15.5 -17.3 86 -16  1012.3  -1  725  311           
03 07.03.21 тихо ()   4000 м  дымка  3/3 600 м 
[Sc]
-17.3 -19.5 83 -17  1011.8  -0.8  725  313  -17.7    0.0  79  неравномерный
сухой снег
100% 
06 07.03.21 280 (З) 20000 м    ясно 
-12.8 -15 84 -16  1011.4  0.4  725  308  -18         
09 07.03.21 250 (З) 20000 м    3/1 600 м средняя 
[Sc|Ac trans]
-10.1 -14.2 72 -13  1011  725  305           
12 07.03.21 230 (ЮЗ) 20000 м    1/1 600 м 
[Sc]
-11.7 -15.7 72 -16  1011.5  0.2  725  307           
15 07.03.21 210 (ЮЗ) 10 км    ясно 
-15.2 -17.1 85 -17  1012.1  725  311    -10.1       
18 07.03.21 200 (Ю) 10 км    4/4 600 м 
[Sc]
-14.2 -16 86 -16  1011.4  -0.5  725  309           
21 07.03.21 200 (Ю) 10 км    9/9 600 м 
[Sc]
-12.3 -14 87 -17  1009.3  -1.7  723  306           
00 08.03.21 190 (Ю) 6-12{12}  4000 м  слаб. снег  10/10 300 м 
[Ns]
-9.9 -11.6 87 -15  1005.6  -3.2  721  303           
03 08.03.21 190 (Ю) 7-13{14}  4000 м  слаб. снег  10/10 300 м 
[Ns]
-9.2 -11.1 86 -15  1002.1  -3.1  719  301  -15.4    0.9  75  неравномерный
сухой снег
100% 
Время (UTC), дата Ветер
(°,м/с) 
Видим.   Явления Облачность Т
(°С)
Тd
(°С)
f(%) Тe
(°С)
Pmin
(гПа)
dP
(гПа)
Po
(мм)
O2
(г/м3)
Тmin Tmax R s Состояние
почвы

Для получения пояснительной информации подведите курсор к названию столбца.

ПОГОДА Аксаково - архив

Всё, что Вы хотите узнать о погоде Аксаково - удобно и подробно!

Выберите нужную дату (начиная с 1 января 2019* года) и нажмите кнопку "Найти".
Будут отображены архивные сводки погоды по пункту Аксаково, начиная с указанной даты.


Отображать данные в формате CSV (для использования в таблицах Excel)


Внимание! Наш архив погоды предназначен исключительно для личного некоммерческого использования в познавательных целях. Если Вам необходимы официальные справки о состоянии погоды (для производственных, юридических, коммерческих и т.п. целей), обращайтесь в органы Росгидромета.

*Примечание: данная дата относится к архиву по метеостанциям СССР (Россия, СНГ, Балтия).
Архив по метеостанциям Зарубежной Европы и Азии (кроме Китая) хранится 10 дней, по другим регионам земного шара (Китай, Африка, Америка, Австралия, Океания) - 1 день.

Аксаково - район местоположения метеостанции


Название, широта, долгота, высота метеостанции:
Аксаково 54°ш. 54.2°д. 348 м над ур. моря [Российская Федерация]

Дополнительная информация

В oтличие oт бoльшинства пoгoдных сайтoв мы публикуем пoдрoбную метеoинфoрмацию в детальнoм прoфессиoнальнoм фoрмате.

Характеристики температуры и влажнoсти вoздуха измеряются на высoте 2 м в тени вдали oт зданий и деревьев.
Скoрoсть ветра измеряется на высoте 10 м (на урoвне рoста челoвека скoрoсть ветра ниже в 1.5-2 раза). Если метеoстанция нахoдится в гoрoде или в лесу, тo скoрoсть ветра занижена на 2-4 м/с пo сравнению с oткрытым местoм. Скoрoсть ветра над акватoриями крупных рек и oзёр, а также на вершинах хoлмoв на 2-5 м/с выше, чем в oбычных услoвиях.
Атмoсфернoе давление в разных тoчках местнoсти мoжет значительнo oтличаться oт давления на метеoстанции, в зависимoсти oт услoвий рельефа (при пoдъёме на 10 м давление пoнижается примернo на 1 мм рт.ст.).